• MPC Preparation (Info)

  • MPEC 2021-K54 : 2015 WE2

    The following Minor Planet Electronic Circular may be linked-to from your own Web pages, but must not otherwise be redistributed electronically.

    A form allowing access to any MPEC is at the bottom of this page.


    Read MPEC 2021-K53 Read MPEC 2021-K55


    M.P.E.C. 2021-K54                                  Issued 2021 May 20, 14:00 UT
    
         The Minor Planet Electronic Circulars contain information on unusual
             minor planets and routine data on comets.  They are published
        on behalf of Division F of the International Astronomical Union by the
              Minor Planet Center, Smithsonian Astrophysical Observatory,
                              Cambridge, MA 02138, U.S.A.
    
                 Prepared using the Tamkin Foundation Computer Network
    
                                  MPC@CFA.HARVARD.EDU
                URL https://www.minorplanetcenter.net/    ISSN 1523-6714
    
                                    2015 WE2                                 
    
    
                               Revision to MPEC 2015-W52                            
    
    Additional Observations:
         K15W02E  C2020 10 20.33777201 48 06.630+11 05 32.06         22.89GVEK054F51
         K15W02E  C2020 10 20.34933701 48 05.437+11 05 27.38         22.40GVEK054F51
         K15W02E  C2020 10 20.36097201 48 04.178+11 05 23.12         22.47GVEK054F51
         K15W02E  C2020 10 20.37260601 48 02.951+11 05 18.43         23.57GVEK054F51
         K15W02E  C2020 10 23.43408001 42 43.633+10 44 42.27         23.16GVEK054F51
         K15W02E  C2020 10 23.44853101 42 42.018+10 44 36.58         22.70GVEK054F51
         K15W02E  C2020 10 23.46176701 42 40.537+10 44 30.99         22.80GVEK054F51
         K15W02E  C2020 10 23.47505401 42 39.090+10 44 25.23         23.39GVEK054F51
         K15W02E  C2020 11 10.36791201 09 50.006+08 31 55.80         22.59GVEK054F51
         K15W02E  C2020 11 10.37811501 09 48.883+08 31 50.98         22.68GVEK054F51
         K15W02E  C2020 11 10.38829101 09 47.797+08 31 47.04         22.23GVEK054F51
         K15W02E  C2021 05 13.26711510 35 17.691+07 28 37.06         22.20GVEK054F51
         K15W02E  C2021 05 13.29084710 35 26.382+07 27 30.31         21.92GVEK054F51
         K15W02E  C2021 05 13.30269010 35 30.696+07 26 56.73         22.02GVEK054F51
         K15W02E |C2021 05 17.03091 10 57 39.19 +04 38 52.8          22.3 GVEK054807
         K15W02E |C2021 05 17.03940 10 57 41.99 +04 38 30.6          22.3 GVEK054807
         K15W02E |C2021 05 17.04752 10 57 44.68 +04 38 09.3          22.3 GVEK054807
    
    Observer details:
    807 Cerro Tololo Observatory, La Serena.  Observers T. Linder, R. Holmes, L.
        Horn.  1.00-m f/10.0 astrograph + CCD.
    F51 Pan-STARRS 1, Haleakala.  Observers J. Bulger, K. Chambers, T. Lowe, A.
        Schultz, I. Smith.  Measurers S. Chastel, M. Huber, Y. Ramanjooloo, R.
        Wainscoat, R. Weryk.  1.8-m Ritchey-Chretien + CCD.
    
    First and last observations above in comparison with prediction:
    Residuals in seconds of arc (or two decimals in degrees), reference and Delta-T
    201020 F51 0.53+ 0.24+    210517 807 1.56+ 0.81+    MPO386948   +0.75 days
    
    Orbital elements:
    2015 WE2                                                 Earth MOID = 0.0171 AU
    Epoch 2020 Dec. 17.0 TT = JDT 2459200.5                 Veres
    M 325.60505              (2000.0)            P               Q
    n   0.38621369     Peri.  117.58901     -0.82788113     -0.56021345
    a   1.8674584      Node    28.36653     +0.49177194     -0.74880203
    e   0.5180711      Incl.    3.35636     +0.26976505     -0.35419827
    P   2.55           H   22.3           G   0.15           U   1
    Residuals in seconds of arc
    151119 G96  0.2-  0.1+    151206 H21  0.6-  0.2-    151217 H45  0.1+  0.2-
    151119 G96  0.4-  0.1+    151206 H21  0.2-  0.1-    151217 H45  0.3+  0.2-
    151119 G96  0.1-  0.0     151206 H21  0.2-  0.2-    151217 H45  0.1+  0.2-
    151119 G96  0.8-  0.5+    151206 H21  0.1-  0.1-    151218 G45  0.0   0.1-
    151119 G96  0.0   0.3+    151206 H21  0.1-  0.1-    151218 G45  0.2+  0.1+
    151119 G96  0.2-  0.1+    151206 H21  0.1-  0.0     151218 G45  0.5+  0.3-
    151119 G96  0.2+  0.1+    151206 H21  0.3-  0.1+    151218 G45  0.1+  1.4-
    151119 G96  0.1-  0.1-    151207 926  0.3-  0.8+    151218 G45  0.3+  0.3-
    151120 711  0.1-  0.1+    151207 926  0.3-  0.1-    151218 G45  0.1-  0.4-
    151120 711  0.1-  0.1+    151207 926  0.3-  0.2+    151218 G45  0.1+  0.1-
    151120 711  0.1+  0.1+    151208 703 (2.1+  1.4+)   151218 G45  0.1+  0.7-
    151120 G96  0.0   0.2+    151208 703  0.6+  0.4+    151218 G45  0.1+  0.2-
    151120 G96  0.1+  0.1+    151208 703  0.3+  0.4+    151218 703  0.2-  0.6+
    151120 G96  0.1+  0.1+    151208 703  0.3+  0.1-    151218 703  0.3+  0.6+
    151120 G96  0.3+  0.1-    151209 H21  0.5-  0.0     151218 703  0.3+  1.2+
    151120 G96  0.0   0.1-    151209 H21  0.2-  0.0     151218 703  0.7+  0.0
    151120 G96  0.2-  0.3-    151209 H21  0.1-  0.1-    151218 I52  0.3+  0.0
    151120 G96  0.3+  0.3+    151209 H21  0.3-  0.2+    151218 I52  0.2-  0.3+
    151120 G96  0.0   0.4+    151209 H21  0.5-  0.0     151218 I52  0.1+  0.1-
    151121 711  0.2-  0.2+    151209 H21  0.3-  0.3+    151219 H21  0.2+  0.3+
    151121 711  0.1-  0.3+    151209 H21  0.2-  0.3+    151219 H21  0.3+  0.0
    151121 711  0.1+  0.3+    151209 H21  0.2-  0.4+    151219 H21  0.0   0.3+
    151121 G96  0.3+  0.2+    151209 A17  0.0   0.1-    151219 H21  0.1+  0.3+
    151121 G96  0.1+  0.2-    151209 A17  0.1+  0.1+    151219 H21  0.3+  0.2+
    151121 G96  0.3+  0.3+    151209 A17  0.1+  0.5-    151219 H21  0.1-  0.2+
    151121 G96  0.1-  0.1-    151210 204  0.1-  0.3+    151219 H21  0.1+  0.2+
    151121 G96  0.1-  0.0     151210 204  0.3+  0.5+    151219 H21  0.0   0.0
    151121 G96  0.1-  0.0     151210 204  0.0   0.2+    151219 H21  0.0   0.3+
    151121 G96  0.1-  0.0     151210 246  0.3-  0.5-    151219 H21  0.1+  0.2+
    151121 G96  0.3+  0.2+    151210 246  0.4-  0.8-    151219 H21  0.2+  0.1+
    151121 G96  0.0   0.2-    151210 246  0.6+  0.7-    151226 H21  0.1-  0.2+
    151121 G96  0.2+  0.0     151210 246  0.0   1.1-    151226 H21  0.2-  0.1+
    151122 G96  0.1-  0.3-    151210 246  0.2+  1.1+    151226 H21  0.2+  0.1+
    151122 G96  0.1-  0.2-    151210 246  0.9-  1.0+    151226 H21  0.1+  0.4+
    151122 G96  0.3-  0.1-    151210 511  0.0   0.1-    151226 H21  0.2+  0.2+
    151129 926  0.4-  0.3-    151210 511  0.0   0.0     151226 H21  0.1+  0.2+
    151129 926  0.2+  0.0     151210 511  0.0   0.4+    151226 H21  0.2+  0.1+
    151129 926  0.4+  0.4-    151210 511  0.2+  0.1-    151226 H21  0.2+  0.1+
    151130 926  0.1-  0.1+    151210 511  0.0   0.2-    151226 H21  0.2+  0.4+
    151130 926  0.7-  0.3+    151210 511  0.1-  0.2-    151226 H21  0.3+  0.4+
    151130 926  0.0   0.1-    151210 511  0.3-  0.3+    151226 H21  0.3+  0.1+
    151130 926  0.9+  0.5-    151210 511  0.2+  0.5-    151226 I89  0.3-  0.1+
    151130 926  0.3-  0.0     151210 511  0.3-  0.3-    151226 B82  0.0   0.1+
    151130 926  0.2-  0.3+    151210 511  0.5-  0.6+    151226 B82  0.2+  0.1+
    151202 926  0.3-  0.4+    151210 511  0.0   0.1-    151226 B82  0.3+  0.3+
    151202 926  0.3-  0.1-    151210 511  0.2-  0.1+    151226 B82  0.2+  0.1+
    151202 926  0.2+  0.2-    151210 511  0.4-  0.2-    151226 B82  0.7+  0.2+
    151202 926  0.5-  0.0     151211 H21  0.1-  0.3-    151226 I89  0.0   0.0
    151202 926  0.1-  0.0     151211 H21  0.4-  0.5-    151227 U69  0.4-  0.0
    151202 H21  0.0   0.2-    151211 H21  0.2-  0.4-    151227 U69  0.4+  0.1+
    151202 H21  0.0   0.4-    151211 H21  0.4-  0.4-    151227 A17  0.2+  0.1-
    151202 926  0.7-  1.2-    151211 H21  0.4-  0.4-    151227 A17  0.0   0.3-
    151202 H21  0.1+  0.2-    151216 926  0.4+  0.2-    151227 A17  0.2+  0.3-
    151202 H21  0.1-  0.2-    151216 926  0.9+  0.7-    151228 C77  0.0   0.2-
    151202 H21  0.1+  0.0     151216 926  0.2-  0.2+    151228 C77  0.2-  0.1-
    151202 H21  0.1+  0.1-    151217 H21  0.1-  0.2+    151228 C77  0.1-  0.2-
    151202 705  0.0   0.0     151217 H21  0.0   0.1+    151229 926  0.0   0.2+
    151202 705  0.1-  0.1-    151217 H21  0.0   0.1+    151229 926  0.5+  0.0
    151202 705  0.2-  0.2-    151217 H21  0.1+  0.1+    151229 926  0.2-  0.2-
    151203 H21  0.0   0.1-    151217 H21  0.2-  0.2-    160102 926  0.7-  0.5-
    151203 H21  0.1-  0.1-    151217 H21  0.0   0.2+    160102 926  0.3-  0.0
    151203 H21  0.1-  0.1+    151217 H21  0.1+  0.0     160102 926  0.1-  0.3+
    151203 H21  0.3-  0.2+    151217 H21  0.1+  0.1-    201020 F51  0.0   0.0
    151203 H21  0.3-  0.2-    151217 I52  0.4+  0.3-    201020 F51  0.4+  0.3-
    151203 H21  0.2-  0.0     151217 H21  0.2-  0.0     201020 F51  0.1-  0.0
    151204 705  0.3+  0.0     151217 H21  0.1-  0.2+    201020 F51  0.0   0.2-
    151204 705  0.1+  0.1-    151217 I52  0.1-  0.6-    201023 F51  0.2+  0.1-
    151204 705  0.1+  0.2-    151217 H21  0.2+  0.2+    201023 F51  0.0   0.3+
    151204 Z62  0.5-  0.2+    151217 H21  0.2+  0.2+    201023 F51  0.2-  0.2+
    151204 Z62  0.4-  0.2-    151217 I52  0.3+  0.3-    201023 F51  0.2+  0.1+
    151204 Z62  0.4-  0.0     151217 H21  0.1+  0.0     201110 F51  0.1+  0.4+
    151205 H45  0.2-  0.0     151217 I52  0.1-  0.3+    201110 F51  0.0   0.1-
    151205 H45  1.0-  0.3-    151217 H21  0.2+  0.1-    201110 F51  0.4+  0.4+
    151205 H45  0.3+  0.1+    151217 H21  0.2+  0.2+    210513 F51  0.5-  0.1+
    151205 H45  0.2-  0.6-    151217 I52  0.1+  0.1-    210513 F51  0.1+  0.1+
    151205 H45  0.5-  0.1+    151217 I52  0.1+  0.2-    210513 F51  0.0   0.1-
    151205 H45  0.4-  0.6-    151217 I52  0.3+  0.1-    210517 807  0.0   0.0
    151205 H45  0.6-  0.5-    151217 H45  0.1-  0.0     210517 807  0.2-  0.1-
    151205 H45  0.4-  0.1+    151217 H45  0.3-  0.1-    210517 807  0.1-  0.2-
    151206 H21  0.5-  0.2-    151217 H45  0.1-  0.0
    
    Ephemeris:
    2015 WE2                 a,e,i = 1.87, 0.52, 3                   q = 0.9000
    Date    TT    R. A. (2000) Decl.     Delta      r    Elong.  Phase     V
    2021 04 20    07 32 54.9 +24 48 15   0.3114  1.0051    81.2    81.0    22.6
    ...
    2021 05 05    09 38 10.9 +14 14 34   0.3182  1.0975    97.7    65.6    22.3
    ...
    2021 05 13    10 33 37.5 +07 41 17   0.3523  1.1529   105.0    57.8    22.4
    ...
    2021 05 19    11 08 29.8 +03 15 08   0.3899  1.1963   108.9    53.1    22.6
    2021 05 20    11 13 47.6 +02 34 12   0.3970  1.2037   109.4    52.4    22.6
    2021 05 21    11 18 57.1 +01 54 19   0.4044  1.2111   109.9    51.8    22.7
    ...
    2021 05 27    11 47 15.7 -01 43 34   0.4531  1.2558   112.1    48.4    22.9
    ...
    2021 06 04    12 19 09.1 -05 41 30   0.5286  1.3163   113.3    45.1    23.2
    ...
    2021 06 19    13 06 54.1 -11 07 50   0.6963  1.4306   112.0    41.2    23.9
    
    A. U. Tomatic                (C) Copyright 2021 MPC           M.P.E.C. 2021-K54
    


    Read MPEC 2021-K53 Read MPEC 2021-K55


    MPEC number:

    Enter an MPEC number in one of the following forms:

    • 1997-B01 (the full form)
    • J97B01 (the packed version of the full form)
    • B01 (the abbreviated form)